TimeCST,TemperatureF,Dew PointF,Humidity,Sea Level PressureIn,VisibilityMPH,Wind Direction,Wind SpeedMPH,Gust SpeedMPH,PrecipitationIn,Events,Conditions,WindDirDegrees,DateUTC
12:56 AM,30.9,28.9,92,30.37,10.0,Calm,Calm,-,N/A,,Clear,0,2012-12-31 06:56:00
1:56 AM,30.0,28.0,92,30.35,10.0,Calm,Calm,-,N/A,,Clear,0,2012-12-31 07:56:00
2:56 AM,33.1,28.9,85,30.35,10.0,Calm,Calm,-,N/A,,Clear,0,2012-12-31 08:56:00
3:56 AM,33.1,28.0,82,30.34,10.0,Calm,Calm,-,N/A,,Clear,0,2012-12-31 09:56:00
4:56 AM,34.0,27.0,75,30.33,10.0,Calm,Calm,-,N/A,,Clear,0,2012-12-31 10:56:00
5:56 AM,33.1,27.0,78,30.35,10.0,Calm,Calm,-,N/A,,Clear,0,2012-12-31 11:56:00
6:56 AM,35.1,27.0,72,30.35,10.0,Calm,Calm,-,N/A,,Clear,0,2012-12-31 12:56:00
7:56 AM,37.9,28.9,70,30.35,10.0,ESE,3.5,-,N/A,,Clear,120,2012-12-31 13:56:00
8:56 AM,44.1,32.0,63,30.38,10.0,Variable,3.5,-,N/A,,Clear,0,2012-12-31 14:56:00
9:56 AM,48.9,35.1,59,30.38,10.0,Variable,4.6,-,N/A,,Mostly Cloudy,0,2012-12-31 15:56:00
10:56 AM,51.1,37.9,61,30.35,10.0,Variable,4.6,-,N/A,,Overcast,0,2012-12-31 16:56:00
11:56 AM,55.0,41.0,59,30.31,10.0,South,6.9,-,N/A,,Overcast,170,2012-12-31 17:56:00
12:56 PM,57.0,43.0,59,30.26,10.0,Calm,Calm,-,N/A,,Overcast,0,2012-12-31 18:56:00
1:56 PM,60.1,45.0,57,30.22,10.0,Variable,3.5,-,N/A,,Scattered Clouds,0,2012-12-31 19:56:00
2:56 PM,60.1,46.0,60,30.21,10.0,Variable,3.5,-,N/A,,Overcast,0,2012-12-31 20:56:00
3:56 PM,59.0,46.9,64,30.20,10.0,Calm,Calm,-,N/A,,Overcast,0,2012-12-31 21:56:00
4:56 PM,57.9,48.0,70,30.21,10.0,ESE,3.5,-,N/A,,Overcast,120,2012-12-31 22:56:00
5:56 PM,57.0,46.9,69,30.22,10.0,SE,3.5,-,N/A,,Overcast,130,2012-12-31 23:56:00
6:56 PM,55.9,48.0,75,30.22,10.0,SSE,4.6,-,N/A,,Overcast,150,2013-01-01 00:56:00
7:56 PM,55.0,48.0,77,30.18,10.0,SE,5.8,-,N/A,,Overcast,130,2013-01-01 01:56:00
8:56 PM,55.9,48.0,75,30.16,10.0,SSE,5.8,-,N/A,,Overcast,150,2013-01-01 02:56:00
9:56 PM,55.9,48.0,75,30.15,10.0,Variable,3.5,-,N/A,,Overcast,0,2013-01-01 03:56:00
10:56 PM,55.9,48.0,75,30.13,10.0,SSE,6.9,-,N/A,,Overcast,150,2013-01-01 04:56:00
11:18 PM,55.4,48.2,77,30.13,10.0,SE,4.6,-,N/A,,Overcast,140,2013-01-01 05:18:00
11:56 PM,55.0,48.0,77,30.12,10.0,South,6.9,-,N/A,,Overcast,170,2013-01-01 05:56:00